Location: Allaines
(49.9632°N, 2.9458°E)
Time: 13:58:56
(UTC+00:00)

Cosmos 1535 Rocket - Pass Details

Date: 09 April 2020
Orbit: 949 x 1003 km, 83.0° (Epoch: 02 June)

Event Time Altitude Azimuth Distance (km) Brightness Sun altitude
Rises 21:37:47 0° 351° (N) 3,648 8.5 -25.3°
Reaches altitude 10° 21:40:17 10° 353° (N) 2,703 7.6 -25.6°
Maximum altitude 21:46:29 77° 80° (E) 997 4.4 -26.1°
Enters shadow 21:47:19 66° 138° (SE) 1,055 4.3 -26.2°
